{"data":{"norad_id":48095,"epoch":"2026-05-24T11:12:05.168736Z","epoch_age_seconds":127942,"freshness":"FRESH","line1":"1 48095U 21027D   26144.46672649  .00000942  00000+0  42102-4 0  9996","line2":"2 48095  53.1599 173.0234 0001148  88.3615 271.7518 15.31708184284132","mean_motion":15.31708184,"eccentricity":0.0001148,"inclination_deg":53.1599,"raan_deg":173.0234,"arg_perigee_deg":88.3615,"mean_anomaly_deg":271.7518,"bstar":4.2102e-5,"rev_number":28413,"period_min":94.012685643521,"perigee_km":469.92935097774,"apogee_km":471.50184753453,"semimajor_km":6848.8525992561,"source":"CELESTRAK","updated_at":"2026-05-25T13:38:16.641500Z"}}